DW4078 Weather Reports


Display with metric or nautical units.
time (UTC)temp
F
wind
direction
speed
MPH
gust
MPH
rain 1hr
in
rain 24hr
in
rain mn
in
humidity
%
barometer
mb
20260509045124 50 135 1.0 4.0 0.03 0.29 0.04 96 1009.3
20260509044803 50 131 1.0 4.0 0.04 0.29 0.03 96 1009.4
20260509044603 50 131 1.0 4.0 0.04 0.29 0.03 96 1009.3
20260509044403 50 132 1.0 4.0 0.04 0.29 0.03 96 1009.1
20260509044103 50 132 1.0 4.0 0.04 0.29 0.03 96 1009.4
20260509044024 50 133 1.0 4.0 0.04 0.29 0.03 96 1009.5
20260509043903 50 136 1.0 3.0 0.04 0.29 0.03 96 1009.4
20260509043603 50 141 1.0 3.0 0.04 0.29 0.03 96 1009.5
20260509043503 50 140 1.0 3.0 0.04 0.29 0.03 96 1009.5
20260509043303 50 130 1.0 4.0 0.04 0.29 0.03 96 1009.5
20260509043203 50 130 1.0 4.0 0.04 0.29 0.03 96 1009.7
20260509043103 50 136 1.0 4.0 0.04 0.29 0.03 96 1009.5
20260509043003 50 138 1.0 4.0 0.03 0.28 0.03 96 1009.5
20260509042803 50 134 2.0 4.0 0.03 0.28 0.02 96 1009.5
20260509042703 50 132 2.0 4.0 0.03 0.28 0.02 96 1009.7
20260509042603 50 130 2.0 4.0 0.03 0.28 0.02 96 1009.7
20260509042403 50 130 2.0 4.0 0.02 0.27 0.01 96 1009.6
20260509042103 50 125 1.0 4.0 0.03 0.27 0.01 96 1009.6
20260509041903 50 119 1.0 4.0 0.03 0.27 0.01 96 1009.5
20260509041803 50 122 1.0 4.0 0.03 0.27 0.01 96 1009.7
20260509041403 50 134 1.0 6.0 0.02 0.26 0.00 96 1009.7
20260509041103 50 145 2.0 8.0 0.02 0.26 0.00 96 1009.7
20260509040903 50 144 3.0 8.0 0.03 0.26 0.00 96 1009.8
20260509040603 50 140 3.0 8.0 0.03 0.26 0.00 96 1009.8
20260509040003 50 130 3.0 8.0 0.03 0.26 0.00 96 1009.8
20260509035603 50 130 2.0 8.0 0.03 0.26 0.26 96 1009.8
20260509035403 50 133 2.0 7.0 0.03 0.26 0.26 96 1009.8
20260509035324 50 136 3.0 9.0 0.03 0.26 0.26 96 1009.8
20260509035103 50 141 2.0 9.0 0.03 0.26 0.26 96 1009.8
20260509035003 50 141 2.0 9.0 0.02 0.25 0.25 96 1009.9
20260509034803 50 147 2.0 9.0 0.02 0.25 0.25 96 1010.0
20260509034603 50 149 2.0 9.0 0.02 0.25 0.25 96 1010.0
20260509034503 50 147 2.0 9.0 0.02 0.25 0.25 96 1010.2
20260509034303 50 143 2.0 6.0 0.02 0.25 0.25 96 1010.1
20260509034103 50 142 2.0 6.0 0.02 0.25 0.25 96 1010.3
20260509033924 50 138 2.0 6.0 0.02 0.25 0.25 96 1010.2
20260509033803 50 138 2.0 6.0 0.02 0.25 0.25 96 1010.3
20260509033603 50 135 2.0 6.0 0.02 0.25 0.25 96 1010.2
20260509033403 50 133 2.0 6.0 0.02 0.25 0.25 96 1010.1
20260509033003 50 134 2.0 6.0 0.02 0.25 0.25 96 1010.2
20260509032824 50 133 2.0 6.0 0.02 0.25 0.25 95 1010.3
20260509032703 50 136 2.0 6.0 0.02 0.25 0.25 95 1010.3
20260509032503 50 146 2.0 6.0 0.02 0.25 0.25 95 1010.1
20260509032306 50 148 2.0 6.0 0.02 0.25 0.25 95 1010.4
20260509032103 50 151 2.0 7.0 0.01 0.24 0.24 95 1010.5
20260509032003 50 153 2.0 7.0 0.01 0.24 0.24 95 1010.2
20260509031903 50 152 2.0 7.0 0.01 0.24 0.24 95 1010.3
20260509031103 50 147 2.0 7.0 0.01 0.24 0.24 95 1010.3
20260509031024 50 144 2.0 7.0 0.00 0.23 0.23 95 1010.3
20260509030903 50 149 2.0 7.0 0.00 0.23 0.23 95 1010.5
20260509030803 50 148 2.0 6.0 0.00 0.23 0.23 95 1010.5
20260509030603 50 150 2.0 4.0 0.00 0.23 0.23 95 1010.4
20260509030224 50 138 2.0 4.0 0.00 0.23 0.23 95 1010.4
20260509030124 50 139 2.0 6.0 0.00 0.23 0.23 95 1010.5
20260509025924 50 132 2.0 6.0 0.00 0.23 0.23 95 1010.3
20260509025803 50 131 2.0 6.0 0.00 0.23 0.23 95 1010.3
20260509025603 50 128 2.0 6.0 0.00 0.23 0.23 95 1010.2
20260509025503 50 130 2.0 6.0 0.00 0.23 0.23 95 1010.2
20260509025203 50 132 1.0 6.0 0.00 0.23 0.23 95 1010.3
20260509024703 50 138 1.0 4.0 0.00 0.23 0.23 95 1010.3
20260509024503 50 154 2.0 4.0 0.00 0.23 0.23 95 1010.3
20260509024424 50 154 2.0 4.0 0.00 0.23 0.23 95 1010.2
20260509024324 50 155 2.0 4.0 0.00 0.23 0.23 95 1010.3
20260509024103 50 146 2.0 7.0 0.00 0.23 0.23 95 1010.2
20260509023703 50 140 3.0 9.0 0.00 0.23 0.23 95 1010.6
20260509023503 50 131 3.0 9.0 0.00 0.23 0.23 95 1010.4
20260509023403 50 129 2.0 9.0 0.00 0.23 0.23 95 1010.3
20260509023303 50 133 2.0 9.0 0.00 0.23 0.23 95 1010.1
20260509023203 50 135 2.0 9.0 0.00 0.23 0.23 95 1010.4
20260509023103 50 137 2.0 9.0 0.00 0.23 0.23 95 1010.3
20260509022903 50 142 2.0 4.0 0.00 0.23 0.23 95 1010.5
20260509022703 50 147 2.0 7.0 0.01 0.23 0.23 95 1010.5
20260509022324 50 152 2.0 7.0 0.01 0.23 0.23 95 1010.5
20260509022103 50 158 2.0 7.0 0.01 0.23 0.23 95 1010.4
20260509021803 50 154 2.0 6.0 0.01 0.23 0.23 95 1010.5
20260509021503 50 154 2.0 6.0 0.01 0.23 0.23 95 1010.4
20260509021403 50 152 2.0 6.0 0.01 0.23 0.23 95 1010.6
20260509021103 50 145 2.0 8.0 0.01 0.23 0.23 95 1010.5
20260509021003 50 145 2.0 8.0 0.01 0.23 0.23 95 1010.4
20260509020903 50 143 2.0 8.0 0.01 0.23 0.23 95 1010.5
20260509020803 50 143 2.0 8.0 0.01 0.23 0.23 96 1010.3
20260509020624 50 139 1.0 8.0 0.01 0.23 0.23 95 1010.4
20260509020524 50 140 2.0 8.0 0.01 0.23 0.23 96 1010.4
20260509020203 50 134 1.0 4.0 0.01 0.23 0.23 96 1010.5
20260509015703 50 136 1.0 4.0 0.02 0.23 0.23 96 1010.2
20260509015603 50 136 1.0 4.0 0.02 0.23 0.23 96 1010.4
20260509015503 50 133 1.0 4.0 0.02 0.23 0.23 96 1010.5
20260509015403 50 133 1.0 4.0 0.02 0.23 0.23 96 1010.4
20260509015203 50 135 1.0 4.0 0.02 0.23 0.23 96 1010.5
20260509014803 50 127 1.0 6.0 0.02 0.23 0.23 96 1010.5
20260509014603 50 132 1.0 6.0 0.02 0.23 0.23 96 1010.5
20260509014303 50 138 2.0 6.0 0.03 0.23 0.23 96 1010.4
20260509013803 50 129 2.0 8.0 0.03 0.23 0.23 96 1010.5
20260509013624 50 126 2.0 8.0 0.04 0.23 0.23 96 1010.3
20260509013003 50 129 2.0 6.0 0.04 0.23 0.23 96 1010.7
20260509012803 50 133 2.0 6.0 0.04 0.23 0.23 96 1010.7
20260509012424 50 134 2.0 6.0 0.04 0.22 0.22 96 1010.4
20260509012103 50 131 2.0 4.0 0.04 0.22 0.22 96 1010.3
20260509011824 50 131 2.0 4.0 0.04 0.22 0.22 96 1010.3
20260509011603 50 133 2.0 7.0 0.04 0.22 0.22 96 1010.3
20260509011303 50 132 2.0 7.0 0.05 0.22 0.22 96 1010.5
20260509011003 50 135 2.0 7.0 0.05 0.22 0.22 96 1010.5
20260509010802 50 135 2.0 7.0 0.05 0.22 0.22 96 1010.4
20260509010623 50 133 2.0 7.0 0.05 0.22 0.22 96 1010.3
20260509010523 50 132 2.0 6.0 0.05 0.22 0.22 96 1010.2
20260509010402 50 132 2.0 6.0 0.05 0.22 0.22 96 1010.3
20260509010323 50 131 2.0 6.0 0.05 0.22 0.22 96 1010.4
20260509010202 50 135 2.0 6.0 0.05 0.22 0.22 96 1010.3
20260509010002 50 148 2.0 8.0 0.05 0.22 0.22 96 1010.2
20260509005902 50 149 2.0 8.0 0.04 0.21 0.21 96 1010.2
20260509005802 50 152 2.0 8.0 0.04 0.21 0.21 96 1010.3
20260509005702 50 151 2.0 8.0 0.05 0.21 0.21 96 1010.2
20260509005502 50 147 2.0 8.0 0.05 0.21 0.21 96 1010.1
20260509005305 50 139 2.0 8.0 0.05 0.21 0.21 96 1010.2
20260509005102 50 138 2.0 8.0 0.05 0.21 0.21 96 1010.1
20260509004602 50 126 2.0 6.0 0.06 0.21 0.21 96 1010.3
20260509004402 50 128 2.0 6.0 0.05 0.20 0.20 95 1010.2
20260509004102 50 133 2.0 6.0 0.05 0.20 0.20 95 1010.2
20260509004002 50 133 2.0 6.0 0.05 0.20 0.20 95 1010.1
20260509003902 50 133 2.0 6.0 0.05 0.20 0.20 95 1010.3
20260509003702 50 132 2.0 6.0 0.05 0.19 0.19 95 1010.3
20260509003323 50 127 1.0 6.0 0.05 0.19 0.19 95 1010.5
20260509003123 50 121 1.0 3.0 0.05 0.19 0.19 95 1010.3
20260509002305 50 128 1.0 3.0 0.05 0.18 0.18 95 1010.3
20260509002202 50 131 1.0 3.0 0.05 0.18 0.18 95 1010.4
20260509001902 50 140 1.0 2.0 0.05 0.18 0.18 95 1010.5
20260509001702 50 140 1.0 2.0 0.06 0.18 0.18 95 1010.4
20260509001402 50 138 0.0 2.0 0.05 0.17 0.17 95 1010.4
20260509001302 50 135 0.0 2.0 0.05 0.17 0.17 95 1010.3
20260509001023 50 124 0.0 2.0 0.05 0.17 0.17 95 1010.3
20260509000923 50 123 0.0 2.0 0.05 0.17 0.17 95 1010.3
20260509000602 50 125 1.0 2.0 0.05 0.17 0.17 95 1010.2
20260509000502 50 127 1.0 2.0 0.05 0.17 0.17 95 1010.1
20260509000403 50 131 1.0 2.0 0.05 0.17 0.17 95 1010.3
20260509000204 50 133 1.0 2.0 0.05 0.17 0.17 94 1010.0
20260508235802 50 138 0.0 2.0 0.05 0.17 0.17 95 1010.0
20260508235702 50 141 0.0 2.0 0.04 0.16 0.16 94 1010.4
20260508235502 50 147 0.0 2.0 0.04 0.16 0.16 95 1010.2
20260508235423 50 121 0.0 2.0 0.04 0.16 0.16 94 1010.4
20260508234902 50 119 0.0 2.0 0.05 0.16 0.16 94 1010.3
20260508234802 50 119 0.0 2.0 0.05 0.16 0.16 95 1010.2
20260508234702 50 119 0.0 2.0 0.05 0.15 0.15 94 1010.3
20260508234623 50 119 0.0 2.0 0.05 0.15 0.15 94 1010.2
20260508234402 50 121 0.0 2.0 0.05 0.15 0.15 94 1010.3
20260508234302 50 121 0.0 2.0 0.06 0.15 0.15 94 1010.3
20260508233802 51 123 0.0 2.0 0.06 0.14 0.14 94 1010.2
20260508233402 51 136 0.0 3.0 0.07 0.14 0.14 94 1010.4
20260508232602 51 141 1.0 2.0 0.07 0.13 0.13 94 1010.4
20260508232502 51 141 1.0 2.0 0.07 0.13 0.13 94 1010.1
20260508232402 51 141 1.0 2.0 0.07 0.13 0.13 94 1010.2
20260508232306 51 145 0.0 2.0 0.07 0.13 0.13 93 1010.3
20260508232102 51 147 0.0 2.0 0.08 0.13 0.13 93 1010.3
20260508232002 51 145 0.0 2.0 0.08 0.13 0.13 93 1010.2
20260508231902 51 136 0.0 2.0 0.08 0.13 0.13 93 1010.1
20260508231702 51 0 0.0 0.0 0.07 0.12 0.12 93 1010.2
20260508231602 51 0 0.0 0.0 0.07 0.12 0.12 93 1010.3
20260508231402 51 0 0.0 0.0 0.07 0.12 0.12 93 1010.3
20260508231302 51 0 0.0 0.0 0.08 0.12 0.12 93 1010.2
20260508231102 51 106 0.0 1.0 0.08 0.12 0.12 93 1010.1
20260508231002 51 106 0.0 1.0 0.09 0.12 0.12 93 1010.3
20260508230902 51 110 0.0 1.0 0.09 0.12 0.12 93 1010.2
20260508230802 51 139 0.0 2.0 0.09 0.12 0.12 93 1010.3
20260508230602 51 135 0.0 2.0 0.10 0.12 0.12 93 1010.4
20260508230402 51 139 1.0 3.0 0.10 0.12 0.12 93 1010.5
20260508230302 51 135 1.0 3.0 0.10 0.12 0.12 93 1010.3
20260508225723 51 132 1.0 8.0 0.10 0.12 0.12 93 1010.2
20260508225502 51 135 1.0 8.0 0.10 0.12 0.12 92 1010.2
20260508225402 51 131 1.0 8.0 0.10 0.12 0.12 92 1009.9
20260508225306 51 131 1.0 8.0 0.10 0.12 0.12 92 1010.2
20260508225202 51 129 1.0 8.0 0.10 0.12 0.12 92 1010.1
20260508225102 51 130 1.0 8.0 0.09 0.11 0.11 92 1010.1
20260508225023 51 129 1.0 8.0 0.09 0.11 0.11 92 1010.2
20260508224823 51 127 1.0 6.0 0.09 0.11 0.11 92 1010.2
20260508224602 51 118 1.0 4.0 0.08 0.10 0.10 92 1010.3
20260508224502 51 118 1.0 4.0 0.08 0.10 0.10 92 1010.3
20260508224402 51 120 2.0 4.0 0.08 0.10 0.10 91 1010.2
20260508224202 51 124 1.0 4.0 0.07 0.09 0.09 91 1010.3
20260508224002 51 124 1.0 4.0 0.06 0.08 0.08 91 1010.4
20260508223923 51 125 1.0 4.0 0.06 0.08 0.08 91 1010.5
20260508223802 51 127 1.0 4.0 0.06 0.08 0.08 90 1010.5
20260508223702 51 129 1.0 3.0 0.05 0.07 0.07 90 1010.3
20260508223602 51 128 0.0 2.0 0.05 0.07 0.07 90 1010.4
20260508223202 52 121 0.0 1.0 0.05 0.07 0.07 89 1010.6
20260508223123 52 121 0.0 1.0 0.05 0.07 0.07 89 1010.5
20260508222902 52 121 0.0 1.0 0.04 0.06 0.06 89 1010.3
20260508222802 52 121 0.0 1.0 0.04 0.06 0.06 89 1010.3
20260508222602 52 121 0.0 1.0 0.04 0.06 0.06 88 1010.2
20260508222502 52 121 0.0 1.0 0.04 0.06 0.06 88 1010.3
20260508222402 52 115 0.0 1.0 0.04 0.06 0.06 88 1010.2
20260508222306 52 143 0.0 2.0 0.04 0.06 0.06 88 1010.3
20260508222202 52 155 0.0 2.0 0.03 0.05 0.06 87 1010.4
20260508222102 52 150 0.0 2.0 0.03 0.05 0.05 87 1010.3
20260508222002 52 161 0.0 2.0 0.03 0.05 0.05 87 1010.2
20260508221602 52 149 1.0 2.0 0.03 0.05 0.05 86 1010.2
20260508221402 52 166 1.0 3.0 0.03 0.05 0.05 85 1010.4
20260508221302 52 159 1.0 3.0 0.02 0.04 0.04 85 1010.4
20260508221202 53 160 1.0 3.0 0.02 0.04 0.04 84 1010.4
20260508221102 53 162 1.0 3.0 0.02 0.04 0.04 84 1010.4
20260508221002 53 156 1.0 3.0 0.01 0.03 0.04 84 1010.5
20260508220702 53 164 1.0 3.0 0.00 0.02 0.02 82 1010.3
20260508220623 53 165 1.0 3.0 0.00 0.02 0.02 82 1010.1
20260508220302 53 117 0.0 1.0 0.00 0.02 0.02 82 1009.8
20260508220002 53 124 0.0 1.0 0.00 0.02 0.02 82 1009.7
20260508215902 53 126 0.0 1.0 0.00 0.02 0.02 81 1009.7
20260508215702 53 135 0.0 4.0 0.00 0.02 0.02 81 1009.9
20260508215202 53 148 1.0 4.0 0.00 0.02 0.02 81 1009.8
20260508215102 53 149 1.0 4.0 0.00 0.02 0.02 81 1009.8
20260508215002 53 148 1.0 4.0 0.00 0.02 0.02 81 1009.9
20260508214802 53 145 1.0 4.0 0.00 0.02 0.02 81 1009.9
20260508214623 53 173 1.0 6.0 0.00 0.02 0.02 81 1009.7
20260508214523 53 170 1.0 6.0 0.00 0.02 0.02 81 1009.9
20260508214423 53 174 1.0 6.0 0.00 0.02 0.02 81 1010.0
20260508213902 53 168 2.0 6.0 0.00 0.02 0.02 81 1010.2
20260508213802 53 169 2.0 6.0 0.00 0.02 0.02 81 1010.2
20260508213502 53 160 2.0 4.0 0.00 0.02 0.02 81 1010.2
20260508213402 53 158 2.0 4.0 0.00 0.02 0.02 80 1010.2
20260508213202 53 157 2.0 7.0 0.00 0.02 0.02 81 1010.2
20260508213123 53 155 2.0 7.0 0.00 0.02 0.02 81 1010.2
20260508212902 53 154 2.0 7.0 0.00 0.02 0.02 80 1010.3
20260508212306 53 153 2.0 4.0 0.00 0.02 0.02 81 1010.3
20260508211702 53 149 2.0 7.0 0.00 0.02 0.02 80 1010.2
20260508211602 53 148 2.0 7.0 0.00 0.02 0.02 80 1010.2
20260508211502 53 155 2.0 7.0 0.00 0.02 0.02 80 1010.2
20260508211123 53 162 2.0 7.0 0.00 0.02 0.02 80 1010.1
20260508211002 53 163 2.0 7.0 0.00 0.02 0.02 81 1010.2
20260508210502 53 155 2.0 7.0 0.00 0.02 0.02 80 1010.4
20260508210402 53 158 2.0 7.0 0.00 0.02 0.02 80 1010.4
20260508210323 53 155 2.0 6.0 0.00 0.02 0.02 80 1010.4
20260508210202 53 152 2.0 6.0 0.00 0.02 0.02 80 1010.4
20260508205902 53 169 3.0 6.0 0.00 0.02 0.02 80 1010.6
20260508205702 53 179 3.0 7.0 0.00 0.02 0.02 80 1010.5
20260508205502 54 181 3.0 7.0 0.00 0.02 0.02 80 1010.6
20260508205402 54 173 3.0 7.0 0.00 0.02 0.02 80 1010.4
20260508205102 54 172 3.0 8.0 0.00 0.02 0.02 79 1010.4
20260508204723 54 158 2.0 8.0 0.00 0.02 0.02 79 1010.7
20260508204602 54 154 2.0 8.0 0.00 0.02 0.02 79 1010.7
20260508204402 54 168 2.0 8.0 0.00 0.02 0.02 79 1010.8
20260508204202 54 181 3.0 10.0 0.00 0.02 0.02 79 1010.5
20260508204002 54 186 3.0 10.0 0.00 0.02 0.02 79 1010.7
20260508203902 54 189 3.0 10.0 0.00 0.02 0.02 78 1010.7
20260508203702 54 197 4.0 11.0 0.00 0.02 0.02 78 1010.8
20260508203602 54 196 4.0 13.0 0.00 0.02 0.02 77 1010.7
20260508203302 55 197 5.0 13.0 0.00 0.02 0.02 76 1011.0
20260508203202 55 197 5.0 13.0 0.00 0.02 0.02 75 1011.0
20260508202902 55 192 5.0 13.0 0.00 0.02 0.02 74 1011.0
20260508202823 55 197 5.0 13.0 0.00 0.02 0.02 74 1011.0
20260508202723 55 200 5.0 13.0 0.00 0.02 0.02 74 1011.0
20260508202602 55 198 5.0 11.0 0.00 0.02 0.02 73 1011.0
20260508202502 55 204 5.0 11.0 0.00 0.02 0.02 74 1011.0
20260508202306 55 206 5.0 11.0 0.00 0.02 0.02 73 1011.0
20260508201702 56 186 4.0 13.0 0.00 0.02 0.02 72 1011.0
20260508201502 56 173 3.0 13.0 0.00 0.02 0.02 72 1010.8
20260508201402 57 163 3.0 13.0 0.00 0.02 0.02 71 1010.8
20260508201302 57 168 3.0 13.0 0.00 0.02 0.02 71 1010.7
20260508201202 57 186 3.0 7.0 0.00 0.02 0.02 70 1010.7
20260508200902 57 191 3.0 7.0 0.00 0.02 0.02 69 1010.8
20260508200802 57 196 3.0 7.0 0.00 0.02 0.02 69 1010.8
20260508200603 57 197 3.0 7.0 0.00 0.02 0.02 69 1010.9
20260508200402 57 196 3.0 7.0 0.00 0.02 0.02 69 1010.9
20260508200323 57 188 3.0 7.0 0.00 0.02 0.02 69 1011.0
20260508195902 57 178 3.0 14.0 0.00 0.02 0.02 69 1010.8
20260508195802 57 177 3.0 14.0 0.00 0.02 0.02 69 1011.0
20260508195702 57 179 3.0 14.0 0.00 0.02 0.02 69 1010.9
20260508195602 57 177 4.0 14.0 0.00 0.02 0.02 70 1010.9
20260508195502 57 183 4.0 14.0 0.00 0.02 0.02 69 1010.8
20260508195202 57 180 4.0 14.0 0.00 0.02 0.02 69 1011.0
20260508195102 57 177 4.0 14.0 0.00 0.02 0.02 69 1011.0
20260508194702 58 175 3.0 11.0 0.00 0.02 0.02 68 1011.0
20260508194502 58 177 3.0 11.0 0.00 0.02 0.02 69 1010.9
20260508194402 58 175 3.0 11.0 0.00 0.02 0.02 68 1010.8
20260508194023 58 187 3.0 10.0 0.00 0.02 0.02 67 1010.8
20260508193702 57 200 4.0 10.0 0.00 0.02 0.02 68 1010.9
20260508193602 57 199 4.0 10.0 0.00 0.02 0.02 67 1011.0
20260508193202 57 197 5.0 11.0 0.00 0.02 0.02 68 1010.9
20260508193102 57 193 5.0 11.0 0.00 0.02 0.02 68 1011.0
20260508192902 58 186 5.0 11.0 0.00 0.02 0.02 67 1010.9
20260508192423 58 191 5.0 11.0 0.00 0.02 0.02 66 1010.9
20260508191902 58 197 4.0 11.0 0.00 0.02 0.02 66 1011.1
20260508191602 59 195 3.0 11.0 0.00 0.02 0.02 65 1011.0
20260508191202 60 214 4.0 10.0 0.00 0.02 0.02 64 1010.9
20260508190923 59 241 5.0 15.0 0.00 0.02 0.02 65 1011.0
20260508190502 58 228 5.0 15.0 0.00 0.02 0.02 66 1011.0
20260508190202 59 219 4.0 15.0 0.00 0.02 0.02 65 1011.1
20260508190023 59 193 3.0 10.0 0.00 0.02 0.02 64 1011.2
20260508185702 60 179 3.0 9.0 0.00 0.02 0.02 64 1011.2
20260508185623 59 177 3.0 9.0 0.00 0.02 0.02 65 1011.2
20260508185502 59 178 4.0 9.0 0.00 0.02 0.02 65 1011.1
20260508185402 59 175 3.0 9.0 0.00 0.02 0.02 64 1011.1
20260508185305 59 174 3.0 9.0 0.00 0.02 0.02 63 1011.1
20260508185102 59 178 4.0 9.0 0.00 0.02 0.02 67 1011.1
20260508185002 59 177 4.0 10.0 0.00 0.02 0.02 66 1011.0
20260508184902 59 179 4.0 10.0 0.00 0.02 0.02 65 1011.2
20260508184723 59 193 4.0 10.0 0.00 0.02 0.02 66 1011.3
20260508184302 60 200 4.0 10.0 0.00 0.02 0.02 65 1011.2
20260508184102 60 203 4.0 10.0 0.00 0.02 0.02 64 1010.9
20260508184002 60 203 4.0 10.0 0.00 0.02 0.02 65 1011.1
20260508183702 60 202 4.0 11.0 0.00 0.02 0.02 65 1011.3
20260508183402 60 217 4.0 13.0 0.00 0.02 0.02 63 1011.4
20260508183223 60 216 4.0 13.0 0.00 0.02 0.02 63 1011.3
20260508183102 60 215 5.0 13.0 0.00 0.02 0.02 64 1011.3
20260508182702 59 217 5.0 13.0 0.00 0.02 0.02 64 1011.3
20260508181702 58 210 5.0 14.0 0.00 0.02 0.02 66 1011.5
20260508181323 57 222 6.0 16.0 0.00 0.02 0.02 67 1011.4
20260508181202 57 229 6.0 16.0 0.00 0.02 0.02 68 1011.4
20260508181102 57 222 6.0 16.0 0.00 0.02 0.02 68 1011.7
20260508180802 57 219 5.0 16.0 0.00 0.02 0.02 69 1011.5
20260508180602 57 208 5.0 16.0 0.00 0.02 0.02 68 1011.7
20260508180502 57 205 5.0 16.0 0.00 0.02 0.02 68 1011.8
20260508180323 58 193 5.0 15.0 0.00 0.02 0.02 68 1011.7
20260508175902 57 205 5.0 15.0 0.00 0.02 0.02 69 1011.8
20260508175702 57 212 6.0 15.0 0.00 0.02 0.02 69 1011.8
20260508175402 57 224 5.0 13.0 0.00 0.02 0.02 70 1011.7
20260508175305 57 233 5.0 13.0 0.00 0.02 0.02 69 1011.7
20260508175123 57 233 5.0 13.0 0.00 0.02 0.02 69 1011.9
20260508174902 57 231 5.0 13.0 0.00 0.02 0.02 68 1011.7
20260508174402 57 233 4.0 14.0 0.00 0.02 0.02 66 1011.9
20260508174302 57 228 4.0 14.0 0.00 0.02 0.02 65 1011.9
20260508174202 58 224 4.0 14.0 0.00 0.02 0.02 64 1011.8
20260508173902 58 218 4.0 14.0 0.00 0.02 0.02 64 1011.9
20260508173802 58 218 4.0 14.0 0.00 0.02 0.02 63 1011.8
20260508173623 58 218 4.0 14.0 0.00 0.02 0.02 63 1011.9
20260508173002 57 242 5.0 11.0 0.00 0.02 0.02 64 1011.7
20260508172902 57 237 5.0 11.0 0.00 0.02 0.02 63 1011.6
20260508172802 57 236 4.0 11.0 0.00 0.02 0.02 64 1011.8
20260508172702 57 240 5.0 11.0 0.00 0.02 0.02 64 1011.7
20260508172402 57 240 4.0 11.0 0.00 0.02 0.02 65 1011.9
20260508172202 57 241 4.0 11.0 0.00 0.02 0.02 65 1011.6
20260508172102 57 232 4.0 11.0 0.00 0.02 0.02 64 1011.9
20260508171902 57 234 4.0 10.0 0.00 0.02 0.02 65 1011.9
20260508171702 58 241 5.0 11.0 0.00 0.02 0.02 64 1012.2
20260508171102 58 249 5.0 14.0 0.00 0.02 0.02 63 1011.8
20260508170902 58 245 5.0 14.0 0.00 0.02 0.02 62 1011.7
20260508170802 58 243 5.0 14.0 0.00 0.02 0.02 61 1011.8
20260508170502 59 252 5.0 14.0 0.00 0.02 0.02 61 1011.7
20260508170402 59 255 5.0 14.0 0.00 0.02 0.02 60 1011.9
20260508170323 59 254 5.0 14.0 0.00 0.02 0.02 60 1011.9
20260508170123 59 254 5.0 14.0 0.00 0.02 0.02 63 1011.9
20260508165602 58 256 5.0 15.0 0.00 0.02 0.02 62 1011.7
20260508165202 58 252 5.0 15.0 0.00 0.02 0.02 62 1011.8
20260508165102 58 253 5.0 15.0 0.00 0.02 0.02 61 1011.9
20260508164902 59 250 5.0 15.0 0.00 0.02 0.02 59 1012.0
20260508164723 59 236 4.0 11.0 0.00 0.02 0.02 60 1012.0
20260508164602 59 219 4.0 9.0 0.00 0.02 0.02 61 1012.0
20260508164502 59 217 4.0 9.0 0.00 0.02 0.02 60 1011.9
20260508164302 60 228 4.0 10.0 0.00 0.02 0.02 60 1011.8
20260508164202 60 229 4.0 10.0 0.00 0.02 0.02 59 1011.8
20260508164102 60 231 4.0 10.0 0.00 0.02 0.02 60 1012.3
20260508163902 59 231 4.0 10.0 0.00 0.02 0.02 61 1011.9
20260508163802 58 236 4.0 10.0 0.00 0.02 0.02 63 1011.8
20260508163723 58 234 4.0 10.0 0.00 0.02 0.02 63 1011.9
20260508163602 58 240 4.0 10.0 0.00 0.02 0.02 64 1011.8
20260508163402 58 242 4.0 10.0 0.00 0.02 0.02 63 1012.0
20260508163123 59 234 3.0 10.0 0.00 0.02 0.02 62 1012.2
20260508162902 58 232 3.0 8.0 0.00 0.02 0.02 63 1012.0
20260508162802 58 232 3.0 8.0 0.00 0.02 0.02 63 1012.0
20260508162602 58 232 2.0 8.0 0.00 0.02 0.02 63 1012.0
20260508162402 58 225 3.0 8.0 0.00 0.02 0.02 65 1012.4
20260508162202 59 236 3.0 8.0 0.00 0.02 0.02 63 1012.2
20260508162102 59 239 3.0 8.0 0.00 0.02 0.02 61 1012.4
20260508162002 58 240 3.0 8.0 0.00 0.02 0.02 63 1012.4
20260508161602 58 236 3.0 8.0 0.00 0.02 0.02 63 1012.3
20260508161023 59 171 2.0 7.0 0.00 0.02 0.02 63 1012.3
20260508160902 59 167 2.0 7.0 0.00 0.02 0.02 63 1012.2
20260508160802 59 168 2.0 7.0 0.00 0.02 0.02 61 1012.2
20260508160702 60 169 2.0 7.0 0.00 0.02 0.02 62 1012.3
20260508160602 60 158 2.0 7.0 0.00 0.02 0.02 62 1012.3
20260508160402 60 146 1.0 4.0 0.00 0.02 0.02 61 1012.4
20260508160002 59 294 2.0 6.0 0.00 0.02 0.02 64 1012.2
20260508155902 59 329 2.0 6.0 0.00 0.02 0.02 64 1012.2
20260508155502 58 255 2.0 6.0 0.00 0.02 0.02 64 1012.5
20260508155402 58 216 2.0 6.0 0.00 0.02 0.02 64 1012.3
20260508154402 58 218 3.0 8.0 0.00 0.02 0.02 64 1012.5
20260508153802 57 233 3.0 8.0 0.00 0.02 0.02 66 1012.4
20260508153623 57 254 3.0 8.0 0.00 0.02 0.02 66 1012.5
20260508153302 57 49 2.0 6.0 0.00 0.02 0.02 68 1012.4
20260508152702 56 77 2.0 6.0 0.00 0.02 0.02 69 1012.5
20260508152502 56 142 2.0 6.0 0.00 0.02 0.02 69 1012.4
20260508152305 57 155 2.0 6.0 0.00 0.02 0.02 67 1012.4
20260508152102 57 130 2.0 6.0 0.00 0.02 0.02 66 1012.4
20260508151702 56 210 2.0 6.0 0.00 0.02 0.02 67 1012.6
20260508151602 56 209 2.0 6.0 0.00 0.02 0.02 66 1012.6
20260508151102 55 33 2.0 6.0 0.00 0.02 0.02 70 1012.6
20260508151002 55 10 2.0 6.0 0.00 0.02 0.02 68 1012.4
20260508150802 56 59 1.0 4.0 0.00 0.02 0.02 68 1012.5
20260508150402 57 76 1.0 3.0 0.00 0.02 0.02 69 1012.5
20260508150302 57 91 1.0 3.0 0.00 0.02 0.02 69 1012.7
20260508150202 57 99 1.0 3.0 0.00 0.02 0.02 69 1012.6
20260508150123 56 102 1.0 3.0 0.00 0.02 0.02 68 1012.7
20260508145923 56 102 1.0 3.0 0.00 0.02 0.02 67 1012.7
20260508145002 54 24 2.0 4.0 0.00 0.02 0.02 70 1012.8
20260508144702 54 21 2.0 6.0 0.00 0.02 0.02 70 1012.8
20260508144602 54 7 2.0 6.0 0.00 0.02 0.02 72 1012.6
20260508144402 53 359 2.0 6.0 0.00 0.02 0.02 72 1012.6
20260508144302 53 335 2.0 6.0 0.00 0.02 0.02 71 1012.6
20260508143723 53 108 1.0 4.0 0.00 0.02 0.02 74 1012.7
20260508143623 53 106 1.0 4.0 0.00 0.02 0.02 73 1012.4
20260508143302 53 85 1.0 4.0 0.00 0.02 0.02 75 1012.6
20260508143102 53 83 1.0 4.0 0.00 0.02 0.02 75 1012.5
20260508142902 53 85 1.0 4.0 0.00 0.02 0.02 77 1012.7
20260508142802 53 82 1.0 4.0 0.00 0.02 0.02 78 1012.6
20260508142702 53 81 1.0 4.0 0.00 0.02 0.02 77 1012.8
20260508142602 53 82 1.0 4.0 0.00 0.02 0.02 76 1012.6
20260508142402 53 83 1.0 4.0 0.00 0.02 0.02 76 1012.6
20260508142102 53 97 0.0 2.0 0.00 0.02 0.02 78 1012.6
20260508142002 53 92 1.0 2.0 0.00 0.02 0.02 78 1012.7
20260508141923 52 93 1.0 2.0 0.00 0.02 0.02 77 1012.7
20260508141702 52 101 1.0 2.0 0.00 0.02 0.02 78 1012.9
20260508141602 52 101 1.0 2.0 0.00 0.02 0.02 78 1012.7
20260508141502 52 103 1.0 2.0 0.00 0.02 0.02 79 1012.8
20260508141202 51 117 0.0 2.0 0.00 0.02 0.02 78 1012.9
20260508141102 51 128 0.0 2.0 0.00 0.02 0.02 78 1013.0
20260508141023 51 145 0.0 2.0 0.00 0.02 0.02 78 1013.1
20260508140902 51 149 0.0 2.0 0.00 0.02 0.02 79 1013.1
20260508140702 51 98 0.0 1.0 0.00 0.02 0.02 79 1012.9
20260508140502 51 99 0.0 1.0 0.00 0.02 0.02 78 1012.8
20260508140023 51 99 0.0 1.0 0.00 0.02 0.02 77 1012.9
20260508135602 50 0 0.0 0.0 0.00 0.02 0.02 80 1013.0
20260508135523 50 0 0.0 0.0 0.00 0.02 0.02 80 1012.9
20260508135102 50 117 0.0 1.0 0.00 0.02 0.02 81 1012.9
20260508134702 50 122 0.0 2.0 0.01 0.02 0.02 81 1013.1
20260508134602 50 119 0.0 2.0 0.01 0.02 0.02 81 1013.1
20260508134202 49 118 0.0 2.0 0.02 0.02 0.02 83 1013.0
20260508134102 49 120 0.0 2.0 0.02 0.02 0.02 83 1012.9
20260508133902 50 113 0.0 2.0 0.02 0.02 0.02 83 1012.8
20260508133602 50 122 0.0 3.0 0.02 0.02 0.02 85 1012.8
20260508133102 49 120 1.0 3.0 0.02 0.02 0.02 85 1012.8
20260508133002 49 119 1.0 3.0 0.02 0.02 0.02 85 1012.8
20260508132223 48 118 0.0 1.0 0.02 0.02 0.02 86 1013.1
20260508132102 48 117 0.0 1.0 0.02 0.02 0.02 86 1012.9
20260508132002 48 122 0.0 1.0 0.02 0.02 0.02 87 1012.9
20260508131602 48 0 0.0 0.0 0.02 0.02 0.02 88 1012.9
20260508131502 48 0 0.0 0.0 0.02 0.02 0.02 88 1013.0
20260508131402 48 0 0.0 0.0 0.02 0.02 0.02 88 1013.2
20260508131202 48 0 0.0 0.0 0.02 0.02 0.02 87 1012.9
20260508131102 48 0 0.0 0.0 0.02 0.02 0.02 87 1013.4
20260508130902 48 0 0.0 0.0 0.02 0.02 0.02 86 1013.5
20260508130802 48 0 0.0 0.0 0.02 0.02 0.02 86 1013.2
20260508130702 48 0 0.0 0.0 0.02 0.02 0.02 86 1013.4
20260508130602 48 0 0.0 0.0 0.02 0.02 0.02 86 1013.7
20260508130423 48 0 0.0 0.0 0.02 0.02 0.02 85 1013.4
20260508130302 48 101 0.0 2.0 0.02 0.02 0.02 85 1013.4
20260508130202 48 101 0.0 2.0 0.02 0.02 0.02 85 1013.3
20260508125602 49 137 1.0 3.0 0.02 0.02 0.02 83 1013.2
20260508125502 49 137 1.0 3.0 0.02 0.02 0.02 82 1013.4
20260508125402 49 137 1.0 3.0 0.02 0.02 0.02 81 1013.2
20260508125323 49 132 1.0 3.0 0.02 0.02 0.02 80 1013.3
20260508124902 49 126 1.0 3.0 0.02 0.02 0.02 77 1013.4
20260508124702 49 105 1.0 2.0 0.01 0.01 0.01 76 1013.5
20260508124602 49 102 1.0 2.0 0.01 0.01 0.01 76 1013.5
20260508124202 49 106 1.0 2.0 0.00 0.00 0.00 75 1013.5
20260508124102 50 135 1.0 2.0 0.00 0.00 0.00 74 1013.3
20260508123602 50 200 0.0 2.0 0.00 0.00 0.00 74 1013.0
20260508123502 50 203 0.0 2.0 0.00 0.00 0.00 74 1013.0
20260508123302 50 196 0.0 2.0 0.00 0.00 0.00 74 1013.3
20260508123123 50 206 0.0 2.0 0.00 0.00 0.00 74 1013.2
20260508122902 50 188 0.0 2.0 0.00 0.00 0.00 75 1013.0
20260508122702 49 188 0.0 2.0 0.00 0.00 0.00 74 1012.8
20260508122602 49 188 0.0 2.0 0.00 0.00 0.00 74 1013.0
20260508122502 49 177 0.0 2.0 0.00 0.00 0.00 74 1012.9
20260508122102 49 95 0.0 1.0 0.00 0.00 0.00 75 1012.8
20260508122002 49 90 0.0 1.0 0.00 0.00 0.00 76 1013.0
20260508121902 49 102 0.0 2.0 0.00 0.00 0.00 75 1012.9
20260508121623 49 99 0.0 4.0 0.00 0.00 0.00 76 1012.9
20260508121523 50 100 1.0 4.0 0.00 0.00 0.00 75 1012.8
20260508121402 50 118 1.0 4.0 0.00 0.00 0.00 75 1012.8
20260508121102 49 183 1.0 4.0 0.00 0.00 0.00 73 1012.7
20260508120802 49 210 1.0 4.0 0.00 0.00 0.00 73 1012.8
20260508120623 49 214 1.0 4.0 0.00 0.00 0.00 73 1012.6
20260508120223 49 216 1.0 3.0 0.00 0.00 0.00 73 1012.7
20260508120002 49 99 1.0 3.0 0.00 0.00 0.00 74 1012.6
20260508115902 49 102 1.0 3.0 0.00 0.00 0.00 74 1012.5
20260508115602 49 162 1.0 3.0 0.00 0.00 0.00 74 1012.5
20260508115402 49 147 1.0 4.0 0.00 0.00 0.00 74 1012.4
20260508115306 49 154 1.0 4.0 0.00 0.00 0.00 74 1012.6
20260508115102 49 220 2.0 7.0 0.00 0.00 0.00 74 1012.6
20260508115002 49 215 2.0 7.0 0.00 0.00 0.00 74 1012.6
20260508114923 49 218 2.0 7.0 0.00 0.00 0.00 74 1012.4
20260508114802 49 231 2.0 7.0 0.00 0.00 0.00 74 1012.3
20260508114623 49 227 2.0 7.0 0.00 0.00 0.00 74 1012.3
20260508114502 49 225 2.0 7.0 0.00 0.00 0.00 73 1012.5
20260508114323 49 222 2.0 7.0 0.00 0.00 0.00 73 1012.4
20260508114102 49 194 2.0 4.0 0.00 0.00 0.00 74 1012.5
20260508114023 49 190 2.0 4.0 0.00 0.00 0.00 74 1012.4
20260508113702 49 166 1.0 4.0 0.00 0.00 0.00 74 1012.4
20260508113523 49 161 1.0 4.0 0.00 0.00 0.00 74 1012.2
20260508113123 48 164 1.0 6.0 0.00 0.00 0.00 74 1012.3
20260508112602 48 154 1.0 6.0 0.00 0.00 0.00 74 1011.8
20260508112306 48 143 1.0 4.0 0.00 0.00 0.00 75 1011.9
20260508112102 48 147 1.0 4.0 0.00 0.00 0.00 74 1011.9
20260508111602 47 158 1.0 4.0 0.00 0.00 0.00 75 1012.0
20260508111202 47 159 1.0 4.0 0.00 0.00 0.00 75 1011.9
20260508111123 47 159 1.0 4.0 0.00 0.00 0.00 75 1012.3
20260508111002 47 163 1.0 6.0 0.00 0.00 0.00 75 1012.0
20260508110902 47 164 1.0 6.0 0.00 0.00 0.00 75 1012.4
20260508110802 47 158 1.0 6.0 0.00 0.00 0.00 76 1012.2
20260508110602 47 156 1.0 6.0 0.00 0.00 0.00 76 1012.4
20260508110402 47 156 1.0 6.0 0.00 0.00 0.00 76 1012.4
20260508110302 46 153 1.0 6.0 0.00 0.00 0.00 76 1012.4
20260508105902 46 119 1.0 3.0 0.00 0.00 0.00 79 1012.3
20260508105802 46 117 1.0 3.0 0.00 0.00 0.00 79 1012.3
20260508105702 46 119 1.0 3.0 0.00 0.00 0.00 79 1012.4
20260508105305 46 121 1.0 3.0 0.00 0.00 0.00 80 1012.3
20260508105102 45 125 0.0 3.0 0.00 0.00 0.00 80 1012.3
20260508105002 45 124 0.0 3.0 0.00 0.00 0.00 80 1012.3
20260508104902 45 123 0.0 3.0 0.00 0.00 0.00 80 1012.2
20260508104602 45 114 0.0 2.0 0.00 0.00 0.00 81 1012.2
20260508104523 45 109 0.0 2.0 0.00 0.00 0.00 81 1012.4
20260508104402 45 109 0.0 2.0 0.00 0.00 0.00 81 1012.5
20260508104302 45 113 0.0 2.0 0.00 0.00 0.00 82 1012.5
20260508104102 45 116 0.0 2.0 0.00 0.00 0.00 82 1012.4
20260508103902 45 117 0.0 2.0 0.00 0.00 0.00 82 1012.5
20260508103402 45 112 0.0 2.0 0.00 0.00 0.00 81 1012.2
20260508103302 45 112 0.0 2.0 0.00 0.00 0.00 81 1012.2
20260508103102 45 105 0.0 1.0 0.00 0.00 0.00 82 1012.0
20260508102702 44 105 0.0 2.0 0.00 0.00 0.00 82 1011.9
20260508102602 44 105 0.0 2.0 0.00 0.00 0.00 82 1012.0
20260508102306 44 105 0.0 2.0 0.00 0.00 0.00 82 1012.0
20260508102223 44 107 0.0 2.0 0.00 0.00 0.00 82 1012.0
20260508101802 45 120 0.0 2.0 0.00 0.00 0.00 81 1012.2
20260508101702 45 120 0.0 2.0 0.00 0.00 0.00 81 1012.2
20260508101602 45 120 0.0 2.0 0.00 0.00 0.00 81 1012.0
20260508101402 44 120 0.0 2.0 0.00 0.00 0.00 81 1012.5
20260508101002 44 0 0.0 0.0 0.00 0.00 0.00 83 1012.0
20260508100402 44 111 0.0 1.0 0.00 0.00 0.00 82 1012.2
20260508100202 44 111 0.0 1.0 0.00 0.00 0.00 82 1012.2
20260508095902 44 116 0.0 1.0 0.00 0.00 0.00 81 1012.3
20260508095702 44 116 0.0 1.0 0.00 0.00 0.00 80 1012.2
20260508095523 44 121 0.0 1.0 0.00 0.00 0.00 81 1012.0
20260508095402 45 129 0.0 1.0 0.00 0.00 0.00 81 1012.2
20260508095202 45 129 0.0 1.0 0.00 0.00 0.00 79 1012.2
20260508095102 45 129 0.0 1.0 0.00 0.00 0.00 79 1012.3
20260508094602 45 184 1.0 3.0 0.00 0.00 0.00 79 1012.3
20260508094302 46 158 1.0 3.0 0.00 0.00 0.00 78 1012.3
20260508094123 46 159 1.0 3.0 0.00 0.00 0.00 78 1012.3
20260508093902 46 167 1.0 3.0 0.00 0.00 0.00 77 1012.2
20260508093602 46 144 1.0 3.0 0.00 0.00 0.00 78 1012.4
20260508093502 46 144 1.0 3.0 0.00 0.00 0.00 78 1012.4
20260508093402 46 153 1.0 3.0 0.00 0.00 0.00 78 1012.4
20260508093302 46 155 1.0 3.0 0.00 0.00 0.00 78 1012.3
20260508092902 46 138 1.0 3.0 0.00 0.00 0.00 77 1012.2
20260508092702 46 160 1.0 6.0 0.00 0.00 0.00 77 1012.3
20260508092602 46 165 1.0 6.0 0.00 0.00 0.00 76 1012.3
20260508092402 46 163 1.0 6.0 0.00 0.00 0.00 77 1012.2
20260508092102 46 173 1.0 6.0 0.00 0.00 0.00 76 1012.3
20260508092023 46 175 1.0 6.0 0.00 0.00 0.00 76 1012.4
20260508091923 46 182 1.0 6.0 0.00 0.00 0.00 76 1012.4
20260508091623 46 182 1.0 4.0 0.00 0.00 0.00 77 1012.5
20260508091502 46 177 2.0 6.0 0.00 0.00 0.00 77 1012.4
20260508091402 46 178 1.0 6.0 0.00 0.00 0.00 77 1012.2
20260508091302 46 176 1.0 6.0 0.00 0.00 0.00 76 1012.5
20260508091102 46 173 2.0 6.0 0.00 0.00 0.00 76 1012.3
20260508090902 46 162 1.0 6.0 0.00 0.00 0.00 76 1012.4
20260508090723 46 151 1.0 6.0 0.00 0.00 0.00 77 1012.5
20260508090602 46 151 1.0 6.0 0.00 0.00 0.00 77 1012.5
20260508090502 46 147 1.0 4.0 0.00 0.00 0.00 77 1012.4
20260508085823 46 144 1.0 3.0 0.00 0.00 0.00 77 1012.5
20260508085702 46 147 1.0 3.0 0.00 0.00 0.00 77 1012.5
20260508085402 46 142 1.0 3.0 0.00 0.00 0.00 77 1012.4
20260508085202 46 143 1.0 3.0 0.00 0.00 0.00 76 1012.4
20260508085102 46 142 1.0 3.0 0.00 0.00 0.00 76 1012.4
20260508085002 46 136 1.0 4.0 0.00 0.00 0.00 76 1012.3
20260508084702 46 138 1.0 4.0 0.00 0.00 0.00 76 1012.4
20260508084523 46 139 1.0 4.0 0.00 0.00 0.00 76 1012.3
20260508084402 46 146 1.0 4.0 0.00 0.00 0.00 76 1012.6
20260508084102 46 147 1.0 4.0 0.00 0.00 0.00 76 1012.6
20260508083602 46 164 2.0 6.0 0.00 0.00 0.00 76 1012.5
20260508083302 46 163 1.0 6.0 0.00 0.00 0.00 76 1012.6
20260508083102 46 164 1.0 6.0 0.00 0.00 0.00 76 1012.7
20260508083024 46 168 1.0 6.0 0.00 0.00 0.00 76 1012.6
20260508082802 46 170 1.0 6.0 0.00 0.00 0.00 76 1012.6
20260508082602 46 163 1.0 4.0 0.00 0.00 0.00 76 1012.6
20260508082502 46 164 1.0 4.0 0.00 0.00 0.00 76 1012.5
20260508082305 47 163 1.0 4.0 0.00 0.00 0.00 75 1012.5
20260508082202 47 164 2.0 4.0 0.00 0.00 0.00 75 1012.4
20260508082102 47 169 2.0 4.0 0.00 0.00 0.00 75 1012.7
20260508082023 47 164 2.0 4.0 0.00 0.00 0.00 75 1012.5
20260508081802 47 159 2.0 4.0 0.00 0.00 0.00 75 1012.5
20260508081402 47 167 2.0 6.0 0.00 0.00 0.00 74 1012.6
20260508081102 47 172 2.0 7.0 0.00 0.00 0.00 74 1012.5
20260508080602 47 182 3.0 8.0 0.00 0.00 0.00 73 1012.4
20260508080402 47 194 3.0 8.0 0.00 0.00 0.00 73 1012.5
20260508080002 47 188 3.0 8.0 0.00 0.00 0.00 73 1012.5
20260508075802 47 189 3.0 8.0 0.00 0.00 0.00 73 1012.7
20260508075702 48 192 3.0 8.0 0.00 0.00 0.00 72 1012.5
20260508075502 48 188 3.0 9.0 0.00 0.00 0.00 72 1012.7
20260508075402 48 182 3.0 9.0 0.00 0.00 0.00 72 1012.6
20260508075307 48 185 3.0 9.0 0.00 0.00 0.00 72 1012.6
20260508075102 48 179 3.0 9.0 0.00 0.00 0.00 72 1012.6
20260508074702 48 193 4.0 10.0 0.00 0.00 0.00 71 1012.6
20260508074602 48 190 4.0 10.0 0.00 0.00 0.00 71 1012.7
20260508074402 48 207 4.0 14.0 0.00 0.00 0.00 71 1012.6
20260508074302 48 206 4.0 14.0 0.00 0.00 0.00 71 1012.5
20260508074202 48 214 4.0 14.0 0.00 0.00 0.00 70 1012.4
20260508074123 48 215 5.0 14.0 0.00 0.00 0.00 70 1012.7
20260508074002 48 219 5.0 14.0 0.00 0.00 0.00 70 1012.6
20260508073923 48 216 5.0 14.0 0.00 0.00 0.00 70 1012.6
20260508073702 48 214 5.0 14.0 0.00 0.00 0.00 70 1012.5
20260508073323 49 216 5.0 11.0 0.00 0.00 0.00 69 1012.6
20260508073102 49 212 4.0 11.0 0.00 0.00 0.00 69 1012.7
20260508073002 49 207 4.0 11.0 0.00 0.00 0.00 69 1012.5
20260508072902 49 210 4.0 11.0 0.00 0.00 0.00 68 1012.5
20260508072802 49 210 4.0 11.0 0.00 0.00 0.00 68 1012.7
20260508072702 49 213 4.0 11.0 0.00 0.00 0.00 68 1012.6
20260508072602 49 210 4.0 11.0 0.00 0.00 0.00 68 1012.6
20260508072502 49 216 4.0 11.0 0.00 0.00 0.00 68 1012.6
20260508072402 49 211 4.0 11.0 0.00 0.00 0.00 68 1012.5
20260508072202 49 208 4.0 11.0 0.00 0.00 0.00 68 1012.5
20260508071602 49 199 4.0 11.0 0.00 0.00 0.00 67 1012.6
20260508071502 49 190 4.0 11.0 0.00 0.00 0.00 67 1012.8
20260508071402 49 191 4.0 11.0 0.00 0.00 0.00 67 1012.6
20260508071102 48 183 3.0 10.0 0.00 0.00 0.00 67 1012.7
20260508071023 48 178 3.0 10.0 0.00 0.00 0.00 67 1012.7
20260508070902 48 174 2.0 8.0 0.00 0.00 0.00 68 1012.8
20260508070802 48 182 2.0 8.0 0.00 0.00 0.00 68 1012.7
20260508070602 48 184 2.0 8.0 0.00 0.00 0.00 67 1012.7
20260508070202 48 176 2.0 7.0 0.00 0.00 0.00 68 1012.7
20260508065823 47 164 2.0 7.0 0.00 0.00 0.00 68 1012.7
20260508065723 47 160 1.0 7.0 0.00 0.00 0.00 69 1012.6
20260508065502 47 154 2.0 7.0 0.00 0.00 0.00 69 1012.6
20260508065402 47 150 1.0 7.0 0.00 0.00 0.00 70 1012.7
20260508065306 47 146 1.0 7.0 0.00 0.00 0.00 69 1012.5
20260508065202 47 144 1.0 7.0 0.00 0.00 0.00 70 1012.5
20260508064902 47 138 1.0 7.0 0.00 0.00 0.00 70 1012.3
20260508064602 47 133 1.0 7.0 0.00 0.00 0.00 70 1012.7
20260508064202 47 140 1.0 4.0 0.00 0.00 0.00 71 1012.5
20260508064002 47 142 1.0 4.0 0.00 0.00 0.00 71 1012.6
20260508063802 47 143 1.0 4.0 0.00 0.00 0.00 71 1012.4
20260508063723 47 143 1.0 4.0 0.00 0.00 0.00 70 1012.6
20260508063623 47 143 1.0 4.0 0.00 0.00 0.00 71 1012.6
20260508063502 47 141 1.0 4.0 0.00 0.00 0.00 72 1012.7
20260508063402 46 141 1.0 4.0 0.00 0.00 0.00 71 1012.7
20260508063202 46 138 1.0 3.0 0.00 0.00 0.00 72 1012.5
20260508062902 46 130 0.0 3.0 0.00 0.00 0.00 73 1012.5
20260508062802 46 130 0.0 3.0 0.00 0.00 0.00 73 1012.8
20260508062702 46 129 0.0 3.0 0.00 0.00 0.00 73 1012.6
20260508062102 46 120 0.0 1.0 0.00 0.00 0.00 73 1012.7
20260508062002 46 119 0.0 1.0 0.00 0.00 0.00 73 1012.7
20260508061602 46 116 0.0 1.0 0.00 0.00 0.00 73 1012.6
20260508061502 46 116 0.0 2.0 0.00 0.00 0.00 73 1012.5
20260508061102 46 119 0.0 2.0 0.00 0.00 0.00 74 1012.7
20260508060902 46 122 0.0 2.0 0.00 0.00 0.00 73 1012.8
20260508060802 46 123 1.0 2.0 0.00 0.00 0.00 72 1012.7
20260508060602 46 123 1.0 2.0 0.00 0.00 0.00 73 1012.7
20260508060502 46 123 1.0 2.0 0.00 0.00 0.00 73 1012.8
20260508060402 46 122 1.0 2.0 0.00 0.00 0.00 73 1012.7
20260508060302 46 123 1.0 2.0 0.00 0.00 0.00 73 1012.9
20260508055902 46 122 1.0 2.0 0.00 0.00 0.00 73 1012.6
20260508055623 46 122 0.0 2.0 0.00 0.00 0.00 72 1012.7
20260508055402 46 123 0.0 1.0 0.00 0.00 0.00 72 1012.9
20260508055102 46 122 0.0 2.0 0.00 0.00 0.00 72 1013.0
20260508055002 46 122 0.0 2.0 0.00 0.00 0.00 72 1012.8
20260508054902 47 121 0.0 2.0 0.00 0.00 0.00 72 1013.0
20260508054802 47 121 0.0 2.0 0.00 0.00 0.00 71 1012.9
20260508054602 47 120 0.0 2.0 0.00 0.00 0.00 71 1012.9
20260508054223 46 118 0.0 2.0 0.00 0.00 0.00 71 1012.9
20260508054123 47 119 0.0 2.0 0.00 0.00 0.00 70 1012.8
20260508054002 47 120 0.0 2.0 0.00 0.00 0.00 71 1013.0
20260508053802 47 120 0.0 2.0 0.00 0.00 0.00 70 1013.0
20260508053602 47 123 0.0 2.0 0.00 0.00 0.00 70 1013.0
20260508053403 47 126 0.0 2.0 0.00 0.00 0.00 70 1013.1
20260508052923 46 126 1.0 2.0 0.00 0.00 0.00 70 1013.0
20260508052425 47 131 1.0 2.0 0.00 0.00 0.00 70 1013.4
20260508052307 47 131 1.0 2.0 0.00 0.00 0.00 69 1013.1
20260508051803 46 136 1.0 2.0 0.00 0.00 0.00 69 1013.2
20260508051704 46 136 0.0 2.0 0.00 0.00 0.00 70 1013.2
20260508051623 46 138 1.0 2.0 0.00 0.00 0.00 70 1013.3
20260508051402 46 139 1.0 3.0 0.00 0.00 0.00 69 1013.3
20260508050902 47 138 1.0 3.0 0.00 0.00 0.00 69 1013.3
20260508050802 47 139 1.0 3.0 0.00 0.00 0.00 69 1013.3
20260508050302 47 138 1.0 3.0 0.00 0.00 0.00 68 1013.2
20260508050002 47 142 1.0 3.0 0.00 0.00 0.00 68 1013.2
20260508045902 47 142 1.0 3.0 0.00 0.00 0.00 68 1013.3
20260508045602 47 146 1.0 3.0 0.00 0.00 0.00 68 1013.3
20260508045323 47 147 1.0 3.0 0.00 0.00 0.00 67 1013.3